TAM4671 SBFL-SBGR

Flight info

Callsign TAM4671
Flight time 1h 1m
Altitude 35000
Route DCT ILVOR UZ69 XONUG UZ121 BUXUK DCT
Aircraft A321/M-SDE3FGHIRWY/LB1

Departure

Time 2026-04-22 18:19
Airport Hercílio Luz International Airport (SBFL)

Arrival

Time 2026-04-22 19:20
Airport São Paulo/Guarulhos–Governor André Franco Montoro International Airport (SBGR)
Time Latitude Longitude Altitude Speed Heading
2026-04-22 17:57 -27.67305 -48.54507 25 ft 0 kts 212°
2026-04-22 18:04 -27.67304 -48.54507 25 ft 0 kts 212°
2026-04-22 18:11 -27.67295 -48.54501 25 ft 2 kts 202°
2026-04-22 18:12 -27.67280 -48.54494 25 ft 2 kts 190°
2026-04-22 18:12 -27.67263 -48.54493 25 ft 2 kts 153°
2026-04-22 18:12 -27.67254 -48.54500 25 ft 2 kts 131°
2026-04-22 18:12 -27.67245 -48.54512 25 ft 1 kts 122°
2026-04-22 18:14 -27.67246 -48.54511 25 ft 2 kts 122°
2026-04-22 18:14 -27.67271 -48.54464 25 ft 11 kts 121°
2026-04-22 18:14 -27.67295 -48.54388 26 ft 10 kts 70°
2026-04-22 18:15 -27.67237 -48.54339 25 ft 11 kts 30°
2026-04-22 18:15 -27.67223 -48.54271 24 ft 10 kts 116°
2026-04-22 18:15 -27.67262 -48.54200 24 ft 11 kts 121°
2026-04-22 18:15 -27.67304 -48.54121 27 ft 12 kts 121°
2026-04-22 18:16 -27.67351 -48.54034 25 ft 14 kts 121°
2026-04-22 18:16 -27.67402 -48.53939 24 ft 15 kts 121°
2026-04-22 18:16 -27.67456 -48.53837 24 ft 16 kts 121°
2026-04-22 18:16 -27.67514 -48.53729 24 ft 17 kts 122°
2026-04-22 18:17 -27.67576 -48.53614 24 ft 18 kts 121°
2026-04-22 18:17 -27.67640 -48.53494 24 ft 18 kts 120°
2026-04-22 18:17 -27.67707 -48.53368 26 ft 19 kts 121°
2026-04-22 18:17 -27.67761 -48.53251 24 ft 15 kts 94°
2026-04-22 18:18 -27.67709 -48.53191 25 ft 10 kts 34°
2026-04-22 18:18 -27.67648 -48.53155 25 ft 10 kts
2026-04-22 18:18 -27.67600 -48.53206 26 ft 11 kts 301°
2026-04-22 18:18 -27.67536 -48.53324 25 ft 46 kts 301°
2026-04-22 18:19 -27.67240 -48.53876 22 ft 115 kts 301°
2026-04-22 18:19 -27.66729 -48.54827 60 ft 162 kts 302°
2026-04-22 18:19 -27.66167 -48.55873 825 ft 153 kts 303°
2026-04-22 18:19 -27.65612 -48.56925 1447 ft 156 kts 303°
2026-04-22 18:20 -27.65027 -48.58035 1693 ft 175 kts 303°
2026-04-22 18:20 -27.64375 -48.59287 1860 ft 198 kts 298°
2026-04-22 18:20 -27.63621 -48.60713 2051 ft 221 kts 303°
2026-04-22 18:20 -27.62384 -48.61822 2168 ft 241 kts 344°
2026-04-22 18:21 -27.60685 -48.61801 2407 ft 253 kts 25°
2026-04-22 18:21 -27.59256 -48.60706 3251 ft 249 kts 41°
2026-04-22 18:21 -27.58033 -48.59312 4030 ft 251 kts 46°
2026-04-22 18:21 -27.56816 -48.57857 4709 ft 258 kts 45°
2026-04-22 18:22 -27.55538 -48.56412 5312 ft 264 kts 43°
2026-04-22 18:22 -27.54175 -48.54989 5867 ft 271 kts 40°
2026-04-22 18:22 -27.52747 -48.53591 5988 ft 273 kts 39°
2026-04-22 18:22 -27.51279 -48.52220 6010 ft 274 kts 38°
2026-04-22 18:23 -27.49783 -48.50872 6011 ft 276 kts 35°
2026-04-22 18:23 -27.48079 -48.49893 6016 ft 275 kts 16°
2026-04-22 18:23 -27.46197 -48.49615 6523 ft 266 kts 356°
2026-04-22 18:24 -27.42375 -48.49926 7489 ft 289 kts 355°
2026-04-22 18:24 -27.40349 -48.50087 8081 ft 294 kts 355°
2026-04-22 18:24 -27.36353 -48.50406 9769 ft 283 kts 354°
2026-04-22 18:25 -27.34324 -48.50571 10018 ft 299 kts 354°
2026-04-22 18:25 -27.32197 -48.50746 10271 ft 317 kts 354°
2026-04-22 18:25 -27.29931 -48.50936 10428 ft 336 kts 354°
2026-04-22 18:26 -27.25082 -48.51345 11179 ft 356 kts 354°
2026-04-22 18:26 -27.22566 -48.51552 11808 ft 359 kts 354°
2026-04-22 18:26 -27.20065 -48.51759 12453 ft 362 kts 354°
2026-04-22 18:26 -27.17539 -48.51967 13063 ft 365 kts 354°
2026-04-22 18:27 -27.15035 -48.52171 14050 ft 352 kts 354°
2026-04-22 18:27 -27.12659 -48.52363 15240 ft 337 kts 353°
2026-04-22 18:27 -27.10279 -48.52558 15516 ft 351 kts 353°
2026-04-22 18:27 -27.07790 -48.52770 15653 ft 367 kts 353°
2026-04-22 18:28 -27.05184 -48.52993 15845 ft 382 kts 353°
2026-04-22 18:28 -27.02558 -48.53215 16755 ft 369 kts 353°
2026-04-22 18:28 -27.00064 -48.53418 17991 ft 349 kts 353°
2026-04-22 18:28 -26.97711 -48.53606 19167 ft 330 kts 353°
2026-04-22 18:29 -26.95402 -48.53795 19520 ft 340 kts 352°
2026-04-22 18:29 -26.92993 -48.54000 19648 ft 355 kts 352°
2026-04-22 18:29 -26.90482 -48.54215 19784 ft 368 kts 352°
2026-04-22 18:29 -26.87875 -48.54437 19926 ft 381 kts 352°
2026-04-22 18:30 -26.85203 -48.54657 20273 ft 388 kts 353°
2026-04-22 18:30 -26.79744 -48.55097 21027 ft 398 kts 353°
2026-04-22 18:30 -26.76966 -48.55322 21403 ft 403 kts 352°
2026-04-22 18:31 -26.74116 -48.55555 21784 ft 407 kts 352°
2026-04-22 18:31 -26.71312 -48.55785 22177 ft 411 kts 352°
2026-04-22 18:31 -26.68450 -48.56020 22604 ft 414 kts 352°
2026-04-22 18:31 -26.65538 -48.56261 23061 ft 415 kts 352°
2026-04-22 18:32 -26.62651 -48.56500 23531 ft 416 kts 352°
2026-04-22 18:32 -26.59763 -48.56739 24010 ft 416 kts 352°
2026-04-22 18:32 -26.56872 -48.56974 24413 ft 418 kts 352°
2026-04-22 18:32 -26.53945 -48.57214 24708 ft 423 kts 351°
2026-04-22 18:33 -26.50992 -48.57461 24978 ft 428 kts 351°
2026-04-22 18:33 -26.48001 -48.57711 25266 ft 433 kts 351°
2026-04-22 18:33 -26.44985 -48.57962 25495 ft 438 kts 351°
2026-04-22 18:33 -26.41912 -48.58196 25614 ft 447 kts 354°
2026-04-22 18:34 -26.38817 -48.57986 26360 ft 439 kts
2026-04-22 18:34 -26.35828 -48.57598 27118 ft 431 kts
2026-04-22 18:34 -26.32852 -48.57250 27572 ft 428 kts 360°
2026-04-22 18:34 -26.29946 -48.56932 28494 ft 410 kts 359°
2026-04-22 18:35 -26.27131 -48.56630 29065 ft 407 kts 358°
2026-04-22 18:35 -26.21408 -48.56034 29429 ft 416 kts 358°
2026-04-22 18:35 -26.18524 -48.55722 29729 ft 418 kts 358°
2026-04-22 18:36 -26.15632 -48.55402 30018 ft 419 kts 358°
2026-04-22 18:36 -26.12735 -48.55072 30450 ft 416 kts 358°
2026-04-22 18:36 -26.09855 -48.54740 30741 ft 417 kts 358°
2026-04-22 18:36 -26.06992 -48.54408 31226 ft 411 kts 358°
2026-04-22 18:37 -26.04152 -48.54081 31536 ft 411 kts 358°
2026-04-22 18:37 -26.01304 -48.53759 31794 ft 412 kts 358°
2026-04-22 18:37 -25.99365 -48.53545 31873 ft 416 kts 358°
2026-04-22 18:37 -25.95487 -48.53121 32043 ft 422 kts 359°
2026-04-22 18:38 -25.92548 -48.52798 32170 ft 426 kts 359°
2026-04-22 18:38 -25.89581 -48.52468 32299 ft 431 kts 359°
2026-04-22 18:38 -25.86580 -48.52130 32428 ft 435 kts 359°
2026-04-22 18:39 -25.80558 -48.51449 33134 ft 430 kts 359°
2026-04-22 18:39 -25.77577 -48.51113 33339 ft 432 kts 359°
2026-04-22 18:39 -25.74570 -48.50777 33466 ft 436 kts 359°
2026-04-22 18:39 -25.71548 -48.50439 33592 ft 439 kts 359°
2026-04-22 18:40 -25.68487 -48.50098 33718 ft 443 kts 359°
2026-04-22 18:40 -25.65411 -48.49755 33848 ft 446 kts 359°
2026-04-22 18:40 -25.62308 -48.49411 33975 ft 450 kts 359°
2026-04-22 18:40 -25.59183 -48.49065 34102 ft 453 kts 359°
2026-04-22 18:41 -25.56035 -48.48715 34226 ft 457 kts 359°
2026-04-22 18:41 -25.52859 -48.48357 34351 ft 460 kts 359°
2026-04-22 18:41 -25.49671 -48.47998 34479 ft 463 kts 360°
2026-04-22 18:41 -25.46446 -48.47635 34604 ft 467 kts 360°
2026-04-22 18:42 -25.43201 -48.47271 34732 ft 470 kts 359°
2026-04-22 18:42 -25.39942 -48.46910 34857 ft 472 kts 360°
2026-04-22 18:42 -25.36662 -48.46549 34984 ft 475 kts 360°
2026-04-22 18:42 -25.33360 -48.46183 35130 ft 478 kts 360°
2026-04-22 18:43 -25.26722 -48.45438 35161 ft 480 kts
2026-04-22 18:43 -25.21164 -48.44814 35156 ft 479 kts
2026-04-22 18:44 -25.14545 -48.44075 35155 ft 478 kts
2026-04-22 18:44 -25.08024 -48.42325 35159 ft 487 kts 13°
2026-04-22 18:45 -25.01596 -48.39985 35155 ft 487 kts 13°
2026-04-22 18:45 -24.95152 -48.37641 35161 ft 488 kts 13°
2026-04-22 18:46 -24.88705 -48.35307 35167 ft 488 kts 13°
2026-04-22 18:46 -24.82259 -48.32979 35170 ft 488 kts 14°
2026-04-22 18:47 -24.75806 -48.30653 35173 ft 488 kts 14°
2026-04-22 18:47 -24.69354 -48.28332 35168 ft 488 kts 14°
2026-04-22 18:48 -24.62909 -48.26011 35166 ft 487 kts 14°
2026-04-22 18:48 -24.56466 -48.23691 35168 ft 487 kts 14°
2026-04-22 18:49 -24.50025 -48.21373 35168 ft 487 kts 14°
2026-04-22 18:49 -24.43589 -48.19058 35163 ft 487 kts 14°
2026-04-22 18:50 -24.37145 -48.16744 35158 ft 486 kts 14°
2026-04-22 18:50 -24.30960 -48.13655 35154 ft 491 kts 25°
2026-04-22 18:51 -24.24939 -48.10097 35151 ft 492 kts 25°
2026-04-22 18:51 -24.18923 -48.06539 35139 ft 491 kts 25°
2026-04-22 18:52 -24.12899 -48.02994 35127 ft 491 kts 25°
2026-04-22 18:52 -24.06868 -47.99457 35127 ft 492 kts 25°
2026-04-22 18:53 -24.03852 -47.97685 34571 ft 494 kts 25°
2026-04-22 18:53 -24.00769 -47.95877 33880 ft 496 kts 25°
2026-04-22 18:53 -23.97740 -47.94100 33350 ft 495 kts 25°
2026-04-22 18:53 -23.94705 -47.92317 32791 ft 494 kts 25°
2026-04-22 18:54 -23.91679 -47.90540 32227 ft 494 kts 25°
2026-04-22 18:54 -23.88653 -47.88763 31655 ft 493 kts 25°
2026-04-22 18:54 -23.85631 -47.86989 31085 ft 493 kts 25°
2026-04-22 18:54 -23.82619 -47.85221 30519 ft 491 kts 25°
2026-04-22 18:55 -23.79607 -47.83460 30065 ft 488 kts 25°
2026-04-22 18:55 -23.76694 -47.81591 29461 ft 489 kts 34°
2026-04-22 18:55 -23.74122 -47.79196 29134 ft 483 kts 43°
2026-04-22 18:55 -23.71723 -47.76649 28634 ft 480 kts 43°
2026-04-22 18:56 -23.69330 -47.74124 28118 ft 477 kts 43°
2026-04-22 18:56 -23.66949 -47.71621 27631 ft 473 kts 43°
2026-04-22 18:56 -23.64587 -47.69144 27147 ft 470 kts 43°
2026-04-22 18:56 -23.62241 -47.66687 26696 ft 465 kts 43°
2026-04-22 18:57 -23.59917 -47.64251 26298 ft 460 kts 43°
2026-04-22 18:57 -23.57633 -47.61852 25987 ft 453 kts 43°
2026-04-22 18:57 -23.55382 -47.59485 25647 ft 447 kts 43°
2026-04-22 18:57 -23.53157 -47.57147 25310 ft 442 kts 43°
2026-04-22 18:58 -23.50947 -47.54830 24976 ft 438 kts 43°
2026-04-22 18:58 -23.48765 -47.52544 24648 ft 434 kts 43°
2026-04-22 18:58 -23.46600 -47.50276 24307 ft 430 kts 43°
2026-04-22 18:58 -23.44463 -47.48038 23990 ft 425 kts 43°
2026-04-22 18:59 -23.42341 -47.45815 23669 ft 420 kts 43°
2026-04-22 18:59 -23.40244 -47.43620 23348 ft 416 kts 43°
2026-04-22 18:59 -23.38164 -47.41444 23038 ft 413 kts 43°
2026-04-22 18:59 -23.36112 -47.39298 22785 ft 410 kts 43°
2026-04-22 19:00 -23.34048 -47.37141 22520 ft 408 kts 43°
2026-04-22 19:00 -23.32007 -47.35011 22269 ft 405 kts 43°
2026-04-22 19:00 -23.29980 -47.32894 22013 ft 403 kts 43°
2026-04-22 19:00 -23.27932 -47.30756 21753 ft 401 kts 43°
2026-04-22 19:01 -23.25928 -47.28664 21500 ft 398 kts 43°
2026-04-22 19:01 -23.23934 -47.26584 21252 ft 397 kts 44°
2026-04-22 19:01 -23.21946 -47.24509 21002 ft 394 kts 44°
2026-04-22 19:01 -23.19973 -47.22455 20752 ft 392 kts 44°
2026-04-22 19:02 -23.18005 -47.20406 20504 ft 390 kts 44°
2026-04-22 19:02 -23.16049 -47.18367 20251 ft 388 kts 44°
2026-04-22 19:02 -23.14115 -47.16336 20004 ft 386 kts 45°
2026-04-22 19:02 -23.12244 -47.14252 19762 ft 384 kts 47°
2026-04-22 19:03 -23.10436 -47.12128 19523 ft 382 kts 48°
2026-04-22 19:03 -23.08661 -47.09988 19280 ft 381 kts 48°
2026-04-22 19:03 -23.06895 -47.07852 19041 ft 379 kts 48°
2026-04-22 19:03 -23.05121 -47.05719 18435 ft 383 kts 48°
2026-04-22 19:04 -23.03323 -47.03576 17882 ft 385 kts 48°
2026-04-22 19:04 -23.01488 -47.01409 17318 ft 386 kts 47°
2026-04-22 19:04 -22.99702 -46.99315 16780 ft 378 kts 47°
2026-04-22 19:04 -22.97932 -46.97241 16224 ft 371 kts 47°
2026-04-22 19:05 -22.96177 -46.95186 15607 ft 365 kts 47°
2026-04-22 19:05 -22.94463 -46.93177 14942 ft 361 kts 47°
2026-04-22 19:05 -22.92763 -46.91186 14316 ft 356 kts 48°
2026-04-22 19:05 -22.91116 -46.89254 14074 ft 340 kts 48°
2026-04-22 19:06 -22.89581 -46.87380 14077 ft 327 kts 56°
2026-04-22 19:06 -22.88737 -46.85142 14084 ft 320 kts 86°
2026-04-22 19:06 -22.88988 -46.82786 13953 ft 316 kts 114°
2026-04-22 19:07 -22.92016 -46.79669 13402 ft 305 kts 150°
2026-04-22 19:07 -22.93783 -46.78385 13133 ft 305 kts 145°
2026-04-22 19:07 -22.95466 -46.76984 12875 ft 305 kts 143°
2026-04-22 19:07 -22.97106 -46.75535 12597 ft 303 kts 142°
2026-04-22 19:08 -22.98729 -46.74083 12322 ft 302 kts 142°
2026-04-22 19:08 -23.00352 -46.72643 12053 ft 301 kts 142°
2026-04-22 19:08 -23.01973 -46.71222 11795 ft 299 kts 142°
2026-04-22 19:08 -23.03601 -46.69813 11594 ft 299 kts 142°
2026-04-22 19:09 -23.05235 -46.68422 11398 ft 299 kts 143°
2026-04-22 19:09 -23.06876 -46.67018 11006 ft 300 kts 142°
2026-04-22 19:09 -23.07976 -46.66070 10827 ft 297 kts 142°
2026-04-22 19:09 -23.10111 -46.64226 10474 ft 296 kts 142°
2026-04-22 19:10 -23.11716 -46.62838 10130 ft 295 kts 142°
2026-04-22 19:10 -23.13309 -46.61460 9848 ft 290 kts 142°
2026-04-22 19:10 -23.14873 -46.60107 9594 ft 285 kts 142°
2026-04-22 19:10 -23.16414 -46.58777 9345 ft 280 kts 142°
2026-04-22 19:11 -23.17918 -46.57484 9212 ft 271 kts 142°
2026-04-22 19:11 -23.19487 -46.56441 9086 ft 260 kts 161°
2026-04-22 19:11 -23.21244 -46.56123 8986 ft 257 kts 183°
2026-04-22 19:11 -23.22980 -46.56550 8676 ft 257 kts 205°
2026-04-22 19:12 -23.24509 -46.57572 8375 ft 254 kts 213°
2026-04-22 19:12 -23.25962 -46.58616 8090 ft 253 kts 213°
2026-04-22 19:12 -23.27456 -46.59679 7871 ft 252 kts 213°
2026-04-22 19:12 -23.28928 -46.60721 7696 ft 253 kts 213°
2026-04-22 19:13 -23.30398 -46.61760 7501 ft 252 kts 213°
2026-04-22 19:13 -23.31862 -46.62797 7323 ft 250 kts 213°
2026-04-22 19:13 -23.33315 -46.63826 7139 ft 250 kts 213°
2026-04-22 19:13 -23.34752 -46.64843 6979 ft 242 kts 213°
2026-04-22 19:14 -23.36145 -46.65829 6770 ft 236 kts 213°
2026-04-22 19:14 -23.37513 -46.66802 6601 ft 235 kts 213°
2026-04-22 19:14 -23.38874 -46.67773 6443 ft 231 kts 213°
2026-04-22 19:14 -23.40166 -46.68696 6284 ft 213 kts 213°
2026-04-22 19:15 -23.41033 -46.69133 6156 ft 203 kts 195°
2026-04-22 19:15 -23.42808 -46.69089 5952 ft 185 kts 161°
2026-04-22 19:15 -23.43563 -46.68687 5815 ft 180 kts 145°
2026-04-22 19:15 -23.44656 -46.67361 5543 ft 176 kts 124°
2026-04-22 19:16 -23.45109 -46.66636 5402 ft 175 kts 124°
2026-04-22 19:16 -23.46025 -46.65181 5183 ft 174 kts 125°
2026-04-22 19:16 -23.46476 -46.64463 5080 ft 173 kts 125°
2026-04-22 19:16 -23.47115 -46.63332 4921 ft 174 kts 113°
2026-04-22 19:17 -23.47352 -46.62072 4766 ft 173 kts 91°
2026-04-22 19:17 -23.47147 -46.60792 4580 ft 172 kts 73°
2026-04-22 19:17 -23.46800 -46.59534 4405 ft 169 kts 74°
2026-04-22 19:17 -23.46478 -46.58349 4247 ft 160 kts 75°
2026-04-22 19:18 -23.46169 -46.57204 4051 ft 156 kts 74°
2026-04-22 19:18 -23.45866 -46.56076 3852 ft 154 kts 74°
2026-04-22 19:18 -23.45563 -46.54950 3649 ft 154 kts 72°
2026-04-22 19:18 -23.45263 -46.53838 3449 ft 154 kts 74°
2026-04-22 19:19 -23.44959 -46.52748 3276 ft 153 kts 74°
2026-04-22 19:19 -23.44655 -46.51635 3061 ft 153 kts 78°
2026-04-22 19:19 -23.44370 -46.50513 2846 ft 153 kts 77°
2026-04-22 19:19 -23.44064 -46.49402 2616 ft 153 kts 76°
2026-04-22 19:20 -23.43770 -46.48306 2473 ft 144 kts 74°
2026-04-22 19:20 -23.43537 -46.47433 2466 ft 83 kts 73°
2026-04-22 19:20 -23.43433 -46.47063 2465 ft 40 kts 66°
2026-04-22 19:20 -23.43291 -46.46850 2465 ft 31 kts 45°
2026-04-22 19:21 -23.43166 -46.46725 2467 ft 23 kts 33°
2026-04-22 19:21 -23.43021 -46.46748 2465 ft 23 kts 347°
2026-04-22 19:21 -23.42867 -46.46796 2465 ft 22 kts 316°
2026-04-22 19:21 -23.42881 -46.46941 2470 ft 18 kts 256°
2026-04-22 19:22 -23.42917 -46.47083 2467 ft 21 kts 253°
2026-04-22 19:22 -23.42960 -46.47243 2464 ft 22 kts 253°
2026-04-22 19:22 -23.43001 -46.47396 2464 ft 20 kts 253°
2026-04-22 19:22 -23.43038 -46.47528 2464 ft 17 kts 253°
2026-04-22 19:23 -23.43069 -46.47644 2468 ft 15 kts 253°
2026-04-22 19:23 -23.43095 -46.47740 2465 ft 12 kts 257°
2026-04-22 19:23 -23.43053 -46.47801 2468 ft 11 kts 342°
2026-04-22 19:23 -23.42971 -46.47820 2466 ft 13 kts 348°
2026-04-22 19:24 -23.42883 -46.47841 2470 ft 13 kts 339°
2026-04-22 19:24 -23.42799 -46.47879 2470 ft 12 kts 346°
2026-04-22 19:24 -23.42783 -46.47946 2465 ft 7 kts 265°
2026-04-22 19:24 -23.42784 -46.47959 2465 ft 0 kts 265°